1495335600.76,33480,17.63,73888.8,1.51,0.95,0.95,0,*74
1495335602.0,33481,17.63,73884.8,1.51,0.95,0.95,0,*75
1495335603.23,33482,17.63,73890.8,1.49,0.87,0.91,0,*78
1495335604.46,33483,17.63,73894.3,1.49,0.91,0.91,0,*7E
1495335605.69,33484,17.63,73892.5,1.49,0.87,0.91,0,*7E
1495335606.91,33485,17.63,73888.8,1.49,0.87,0.87,0,*78
1495335608.14,33486,17.63,73888.3,1.49,0.91,0.91,0,*7B
1495335609.37,33487,17.63,73884.0,1.49,0.79,0.91,0,*7C
1495335610.6,33488,17.63,73886.0,1.49,0.91,0.91,0,*75
1495335611.82,33489,17.63,73886.0,1.49,0.79,0.87,0,*75
1495335613.04,33490,17.63,73888.3,1.49,0.75,0.79,0,*70
1495335614.23,33491,17.63,73882.5,1.49,0.91,0.97,0,*7B
1495335615.47,33492,17.63,73884.5,1.49,0.91,0.91,0,*7E
1495335616.69,33493,17.63,73892.0,1.49,0.87,0.79,0,*7E
1495335617.92,33494,17.63,73896.3,1.49,0.91,0.91,0,*78
1495335619.09,33495,17.63,73890.3,1.49,0.97,0.97,0,*79
1495335620.32,33496,17.63,73894.0,1.49,0.87,0.91,0,*7D
1495335621.54,33497,17.63,73894.8,1.49,0.87,0.87,0,*7B
1495335622.76,33498,17.63,73896.5,1.49,0.79,0.87,0,*75
1495335623.98,33499,17.63,73890.3,1.49,0.79,0.79,0,*75
1495335625.22,33500,17.63,73894.5,1.49,0.91,0.91,0,*74
1495335626.44,33501,17.63,73898.3,1.51,1.01,0.95,0,*40
1495335627.66,33502,17.63,73896.8,1.49,0.87,0.87,0,*76
1495335628.89,33503,17.63,73896.5,1.49,0.91,0.91,0,*77
1495335630.12,33504,17.63,73888.0,1.49,0.87,0.87,0,*70
1495335631.34,33505,17.63,73892.0,1.49,0.87,0.87,0,*71
1495335632.57,33506,17.63,73890.8,1.49,0.87,0.87,0,*72
1495335633.8,33507,17.63,73902.5,1.49,0.91,0.91,0,*73
1495335635.02,33508,17.63,73896.8,1.51,0.95,1.01,0,*49
1495335636.2,33509,17.63,73896.8,1.49,1.01,1.01,0,*7D
1495335637.4,33510,17.63,73894.0,1.49,0.97,0.91,0,*73
1495335638.64,33511,17.63,73898.5,1.51,0.95,0.95,0,*7D
1495335639.84,33512,17.63,73892.5,1.49,0.91,0.97,0,*71
1495335641.01,33513,17.63,73882.8,1.49,0.97,0.97,0,*76
1495335642.24,33514,17.63,73882.8,1.51,1.01,0.95,0,*44
1495335643.48,33515,17.63,73892.5,1.51,0.95,0.95,0,*79
1495335644.65,33516,17.63,73888.8,1.49,0.97,0.97,0,*73
1495335645.87,33517,17.63,73888.3,1.51,1.01,0.95,0,*47
1495335647.12,33518,17.63,73888.5,1.51,0.91,0.87,0,*73
1495335648.35,33519,17.63,73892.5,1.51,0.91,1.01,0,*4D
1495335649.58,33520,17.63,73892.3,1.51,1.05,0.95,0,*47
1495335650.78,33521,17.63,73896.5,1.49,0.97,0.91,0,*71
1495335651.99,33522,17.63,73896.5,1.51,1.01,1.01,0,*7D
1495335653.23,33523,17.63,73886.3,1.51,0.91,0.95,0,*78
1495335654.4,33524,17.63,73890.3,1.49,0.97,0.97,0,*72
1495335655.64,33525,17.63,73892.0,1.51,0.95,0.95,0,*7A
1495335656.87,33526,17.63,73888.8,1.51,0.95,1.01,0,*45
1495335658.07,33527,17.63,73888.5,1.51,1.01,1.05,0,*7C
1495335659.28,33528,17.63,73890.0,1.51,1.01,1.01,0,*77
1495335660.48,33529,17.63,73890.0,1.51,1.01,1.05,0,*72
1495335661.66,33530,17.63,73892.5,1.49,0.97,1.01,0,*49
1495335662.91,33531,17.63,73892.0,1.51,0.91,0.87,0,*78
1495335664.17,33532,17.63,73888.0,1.51,0.91,0.91,0,*7C
1495335665.4,33533,17.63,73894.8,1.49,0.91,0.87,0,*73
1495335666.6,33534,17.63,73896.8,1.49,0.91,0.97,0,*75
1495335667.8,33535,17.63,73900.5,1.51,1.01,1.05,0,*7F
1495335669.01,33536,17.63,73896.8,1.51,1.01,1.05,0,*7C
1495335670.23,33537,17.63,73894.8,1.51,1.01,0.95,0,*45
1495335671.49,33538,17.63,73894.5,1.51,0.91,0.91,0,*76
1495335672.7,33539,17.63,73890.5,1.51,1.01,1.05,0,*73
1495335673.9,33540,17.63,73888.0,1.51,1.01,1.01,0,*79
1495335675.15,33541,17.63,73890.3,1.51,0.95,0.91,0,*7C
1495335676.36,33542,17.63,73894.0,1.51,1.01,1.05,0,*7F
1495335677.58,33543,17.63,73890.0,1.51,0.95,1.01,0,*46
1495335678.83,33544,17.63,73886.8,1.51,0.83,0.91,0,*7E
1495335680.09,33545,17.63,73886.8,1.51,0.91,0.91,0,*7C
1495335681.34,33546,17.63,73888.3,1.51,0.83,0.91,0,*7C
1495335682.57,33547,17.63,73892.0,1.49,0.87,0.91,0,*70
1495335683.81,33548,17.63,73892.3,1.51,0.95,0.95,0,*71
1495335685.07,33549,17.63,73894.3,1.51,0.91,0.91,0,*70
1495335686.29,33550,17.63,73888.0,1.51,0.95,1.01,0,*44
1495335687.54,33551,17.63,73884.3,1.51,0.91,0.95,0,*7D
1495335688.78,33552,17.63,73886.3,1.51,0.95,0.95,0,*7A
1495335690.03,33553,17.63,73880.0,1.51,0.95,0.91,0,*7F
1495335691.27,33554,17.63,73876.3,1.51,0.95,0.95,0,*7C
1495335692.44,33555,17.63,73882.0,1.49,0.97,0.97,0,*74
1495335693.64,33556,17.63,73878.3,1.51,1.01,1.01,0,*7E
1495335694.87,33557,17.63,73878.8,1.49,0.87,0.87,0,*76
1495335696.12,33558,17.63,73878.0,1.51,0.79,0.91,0,*76
1495335697.37,33559,17.63,73874.0,1.51,0.95,0.91,0,*75
1495335698.62,33560,17.63,73878.3,1.51,0.91,0.95,0,*7F
1495335699.85,33561,17.63,73882.8,1.51,0.91,1.01,0,*42
1495335701.07,33562,17.63,73884.3,1.51,0.95,1.05,0,*41
1495335702.29,33563,17.63,73892.3,1.51,0.95,1.01,0,*44
1495335703.46,33564,17.63,73884.0,1.49,0.97,0.97,0,*76
1495335704.69,33565,17.63,73876.8,1.49,0.91,0.87,0,*70
1495335705.92,33566,17.63,73878.8,1.49,0.87,0.87,0,*74
1495335707.18,33567,17.63,73882.0,1.51,0.91,0.91,0,*7C
1495335708.43,33568,17.63,73882.3,1.51,0.95,0.91,0,*77
1495335709.63,33569,17.63,73878.8,1.51,1.01,1.01,0,*72
1495335710.89,33570,17.63,73898.3,1.51,0.91,0.83,0,*79
1495335712.09,33571,17.63,73896.0,1.51,1.01,1.01,0,*7B
1495335713.33,33572,17.63,73898.0,1.51,0.95,0.95,0,*78
1495335714.59,33573,17.63,73906.3,1.51,0.91,0.91,0,*79
1495335715.81,33574,17.63,73890.5,1.51,0.95,1.01,0,*42
1495335717.05,33575,17.63,73888.5,1.51,0.95,0.95,0,*7F
1495335718.31,33576,17.63,73886.5,1.51,0.91,0.91,0,*7C
1495335719.55,33577,17.63,73882.5,1.51,0.95,0.95,0,*7D
1495335720.77,33578,17.63,73886.8,1.51,0.95,1.01,0,*4E
1495335722.02,33579,17.63,73888.3,1.51,0.95,0.91,0,*77
1495335723.25,33580,17.63,73890.3,1.49,0.87,0.91,0,*7B
1495335724.49,33581,17.63,73884.0,1.51,0.95,0.95,0,*74
1495335725.72,33582,17.63,73886.0,1.51,0.91,1.01,0,*4F
1495335726.94,33583,17.63,73898.3,1.51,0.95,1.01,0,*4A
1495335728.19,33584,17.63,73886.3,1.51,0.95,0.91,0,*75
1495335729.45,33585,17.63,73894.5,1.51,0.91,0.91,0,*70
1495335730.67,33586,17.63,73892.3,1.49,0.79,0.79,0,*7A
1495335731.92,33587,17.63,73896.8,1.51,0.91,0.95,0,*76
1495335733.16,33588,17.63,73896.3,1.51,0.95,0.95,0,*7D
1495335734.4,33589,17.63,73900.0,1.51,0.95,0.95,0,*7C
1495335735.65,33590,17.63,73890.8,1.51,0.91,0.83,0,*77
1495335736.88,33591,17.63,73894.5,1.51,0.95,1.01,0,*49
1495335738.08,33592,17.63,73888.8,1.49,0.97,0.91,0,*79
1495335739.28,33593,17.63,73886.0,1.51,1.01,1.01,0,*77
1495335740.49,33594,17.63,73896.5,1.51,1.01,1.01,0,*70
1495335741.7,33595,17.63,73894.0,1.51,1.05,1.05,0,*71
1495335742.89,33596,17.63,73882.8,1.49,0.91,0.97,0,*7D
1495335744.14,33597,17.63,73890.3,1.51,0.91,0.95,0,*77
1495335745.38,33598,17.63,73896.5,1.51,0.95,0.95,0,*7C
1495335746.63,33599,17.63,73890.5,1.51,0.91,0.95,0,*79
1495335747.84,33600,17.63,73884.5,1.51,1.05,1.05,0,*7E
1495335749.06,33601,17.63,73894.0,1.49,0.87,0.91,0,*71
1495335750.31,33602,17.63,73894.8,1.51,0.91,0.95,0,*78
1495335751.55,33603,17.63,73888.8,1.51,0.95,0.95,0,*7D
1495335752.79,33604,17.63,73894.5,1.51,0.95,0.95,0,*7A
1495335754.01,33605,17.63,73894.8,1.51,1.01,0.95,0,*47
1495335755.22,33606,17.63,73898.0,1.53,1.05,1.09,0,*76
1495335756.4,33607,17.63,73894.5,1.53,1.05,1.05,0,*7B
1495335757.64,33608,17.63,73880.8,1.51,0.95,0.95,0,*76
1495335758.9,33609,17.63,73878.8,1.51,0.91,0.91,0,*77
1495335760.15,33610,17.63,73884.5,1.51,0.91,0.95,0,*7B
1495335761.4,33611,17.63,73880.5,1.51,0.91,0.95,0,*7A
1495335762.64,33612,17.63,73886.5,1.51,0.95,0.95,0,*7D
1495335763.86,33613,17.63,73878.3,1.51,0.95,1.01,0,*40
1495335765.11,33614,17.63,73886.0,1.51,0.91,0.91,0,*7B
1495335766.36,33615,17.63,73882.5,1.51,0.83,0.83,0,*7A
1495335767.58,33616,17.63,73898.5,1.53,0.95,0.95,0,*7B
1495335768.83,33617,17.63,73866.0,1.51,0.91,0.83,0,*7B
1495335770.09,33618,17.63,73880.3,1.51,0.91,0.91,0,*77
1495335771.34,33619,17.63,73882.3,1.51,0.79,0.79,0,*76
1495335772.59,33620,17.63,73884.0,1.51,0.91,0.83,0,*7F
1495335773.84,33621,17.63,73884.0,1.51,0.95,0.91,0,*79
1495335775.09,33622,17.63,73894.5,1.51,0.91,0.95,0,*7A
1495335776.34,33623,17.63,73892.8,1.51,0.79,0.79,0,*7F
1495335777.58,33624,17.56,73888.5,1.51,0.79,0.79,0,*78
1495335778.84,33625,17.63,73886.8,1.51,0.83,0.91,0,*7A
1495335780.09,33626,17.63,73900.5,1.51,0.91,0.91,0,*7A
1495335781.32,33627,17.63,73890.0,1.51,0.95,1.01,0,*47
1495335782.57,33628,17.63,73878.0,1.51,0.95,0.91,0,*70
1495335783.79,33629,17.63,73886.5,1.49,0.87,0.87,0,*7C
1495335785.01,33630,17.63,73880.0,1.51,0.95,1.01,0,*41
1495335786.22,33631,17.63,73880.3,1.49,0.97,0.91,0,*73
1495335787.42,33632,17.63,73886.5,1.51,1.01,1.01,0,*7F
1495335788.64,33633,17.63,73882.5,1.51,0.95,1.01,0,*42
1495335789.84,33634,17.63,73890.5,1.53,0.97,0.95,0,*79
1495335791.05,33635,17.63,73892.8,1.53,0.95,0.95,0,*7A
1495335792.23,33636,17.63,73894.8,1.53,1.05,1.05,0,*79
1495335793.47,33637,17.63,73894.5,1.53,1.09,1.09,0,*78
1495335794.65,33638,17.63,73898.0,1.53,1.05,1.05,0,*77
1495335795.85,33639,17.63,73900.8,1.53,1.05,1.09,0,*7A
1495335797.09,33640,17.63,73898.0,1.53,1.09,1.09,0,*78
1495335798.32,33641,17.63,73898.0,1.51,1.05,1.13,0,*7C
1495335799.53,33642,17.63,73898.8,1.51,1.01,1.01,0,*78
1495335800.78,33643,17.63,73888.8,1.51,0.91,0.95,0,*7D
1495335801.95,33644,17.63,73892.8,1.53,0.97,1.05,0,*46
1495335803.19,33645,17.63,73894.8,1.53,1.09,1.09,0,*7D
1495335804.38,33646,17.63,73898.5,1.53,0.97,0.95,0,*7C
1495335805.59,33647,17.63,73898.8,1.55,1.05,1.05,0,*79
1495335806.79,33648,17.63,73904.3,1.51,1.05,1.01,0,*76
1495335808.0,33649,17.63,73910.0,1.51,1.01,1.05,0,*77
1495335809.21,33650,17.63,73904.3,1.53,1.05,1.09,0,*75
1495335810.38,33651,17.63,73894.0,1.53,1.05,0.97,0,*42
1495335811.59,33652,17.63,73896.3,1.53,1.05,1.09,0,*77
1495335812.85,33653,17.63,73902.0,1.55,1.09,1.09,0,*7C
1495335814.06,33654,17.63,73896.8,1.53,1.09,1.05,0,*71
1495335815.27,33655,17.63,73896.0,1.53,1.05,1.09,0,*70
1495335816.44,33656,17.63,73896.0,1.53,0.97,1.05,0,*45
1495335817.67,33657,17.63,73906.0,1.55,0.97,0.95,0,*7A
1495335818.91,33658,17.63,73904.5,1.55,0.87,0.95,0,*74
1495335820.11,33659,17.63,73906.8,1.53,0.87,0.97,0,*71
1495335821.31,33660,17.63,73896.5,1.53,1.05,1.09,0,*76
1495335822.51,33661,17.63,73900.0,1.53,0.97,0.95,0,*79
1495335823.68,33662,17.56,73892.0,1.53,0.97,0.97,0,*78
1495335824.88,33663,17.63,73900.0,1.51,1.01,1.01,0,*7B
1495335826.06,33664,17.63,73898.5,1.53,1.05,0.97,0,*44
1495335827.23,33665,17.63,73898.5,1.53,0.97,0.97,0,*7F
1495335828.49,33666,17.63,73894.8,1.55,1.09,1.09,0,*7A
1495335829.67,33667,17.63,73894.3,1.53,1.05,1.05,0,*7D
1495335830.88,33668,17.63,73894.5,1.55,1.05,1.05,0,*74
1495335832.07,33669,17.56,73892.5,1.53,0.95,1.05,0,*4B
1495335833.25,33670,17.63,73894.8,1.53,0.97,1.05,0,*41
1495335834.48,33671,17.63,73896.8,1.55,1.05,1.09,0,*70
1495335835.69,33672,17.63,73892.8,1.55,0.97,1.05,0,*45
1495335836.88,33673,17.63,73892.0,1.55,0.97,0.97,0,*7E
1495335838.1,33674,17.63,73892.5,1.55,0.97,0.95,0,*7B
1495335839.29,33675,17.63,73892.3,1.53,0.95,0.97,0,*7C
1495335840.5,33676,17.63,73888.0,1.53,1.05,1.09,0,*71
1495335841.68,33677,17.63,73896.0,1.53,1.05,1.05,0,*7C
1495335842.86,33678,17.56,73892.8,1.53,0.97,1.05,0,*49
1495335844.07,33679,17.63,73890.3,1.53,1.05,1.09,0,*7E
1495335845.33,33680,17.63,73894.5,1.55,1.09,1.09,0,*72
1495335846.56,33681,17.63,73894.0,1.55,1.09,1.05,0,*7F
1495335847.74,33682,17.63,73886.8,1.53,0.97,1.05,0,*4C
1495335848.98,33683,17.63,73892.8,1.55,1.09,1.05,0,*7D
1495335850.18,33684,17.63,73890.3,1.55,1.05,1.05,0,*76
1495335851.39,33685,17.63,73906.8,1.55,1.05,1.05,0,*77
1495335852.6,33686,17.63,73902.3,1.55,1.05,1.05,0,*74
1495335853.86,33687,17.63,73894.0,1.55,1.09,1.09,0,*75
1495335855.09,33688,17.63,73894.0,1.55,1.05,1.09,0,*76
1495335856.36,33689,17.63,73896.0,1.55,1.09,1.09,0,*7B
1495335857.59,33690,17.63,73898.3,1.55,1.05,1.09,0,*7F
1495335858.81,33691,17.63,73896.3,1.55,0.95,0.97,0,*70
1495335860.01,33692,17.63,73888.8,1.55,0.97,1.05,0,*4B
1495335861.27,33693,17.63,73894.3,1.55,1.09,1.09,0,*70
1495335862.48,33694,17.63,73898.8,1.55,0.97,1.05,0,*4D
1495335863.68,33695,17.63,73896.0,1.55,0.97,1.05,0,*4C
1495335864.89,33696,17.63,73902.0,1.55,1.05,1.05,0,*75
1495335866.12,33697,17.63,73900.0,1.55,0.97,1.09,0,*42
1495335867.32,33698,17.56,73892.0,1.55,0.97,0.97,0,*7B
1495335868.52,33699,17.63,73898.3,1.55,1.05,0.97,0,*40
1495335869.73,33700,17.63,73892.8,1.53,0.95,0.95,0,*7D
1495335870.93,33701,17.63,73898.5,1.55,0.97,0.97,0,*7A
1495335872.15,33702,17.63,73894.3,1.55,0.97,0.95,0,*7B
1495335873.32,33703,17.56,73890.5,1.53,0.97,0.97,0,*7E
1495335874.54,33704,17.63,73890.3,1.55,0.97,0.95,0,*7D
1495335875.78,33705,17.63,73884.5,1.55,0.87,0.95,0,*7D
1495335876.98,33706,17.63,73894.5,1.55,0.97,0.97,0,*7D
1495335878.18,33707,17.63,73902.0,1.55,0.97,1.05,0,*46
1495335879.39,33708,17.63,73890.0,1.55,1.05,1.05,0,*73
1495335880.63,33709,17.63,73896.0,1.55,1.05,1.09,0,*7E
1495335881.86,33710,17.63,73892.8,1.55,1.05,1.09,0,*76
1495335883.1,33711,17.63,73896.0,1.55,1.05,1.09,0,*77
1495335884.3,33712,17.63,73894.3,1.55,1.05,1.05,0,*78
1495335885.54,33713,17.63,73898.5,1.55,1.05,1.09,0,*75
1495335886.75,33714,17.63,73892.0,1.55,0.95,0.97,0,*7C
1495335888.01,33715,17.63,73896.0,1.55,0.87,0.87,0,*7F
1495335889.21,33716,17.63,73898.8,1.55,0.97,1.05,0,*46
1495335890.41,33717,17.63,73904.3,1.55,0.97,1.05,0,*47
1495335891.62,33718,17.63,73900.8,1.57,1.05,1.09,0,*7C
1495335892.86,33719,17.63,73886.5,1.55,0.95,0.95,0,*73
1495335894.08,33720,17.63,73886.3,1.55,0.97,0.95,0,*7B
1495335895.3,33721,17.63,73888.8,1.55,0.87,0.97,0,*79
1495335896.5,33722,17.63,73894.5,1.55,0.97,0.97,0,*7B
1495335897.72,33723,17.63,73892.3,1.55,0.87,0.97,0,*7B
1495335898.96,33724,17.63,73892.3,1.55,0.95,0.95,0,*7D
1495335900.14,33725,17.63,73890.0,1.53,1.05,1.05,0,*7A
1495335901.36,33726,17.63,73886.0,1.55,0.95,0.97,0,*7D
1495335902.56,33727,17.63,73892.5,1.55,0.97,1.05,0,*44
1495335903.76,33728,17.63,73890.3,1.55,0.97,0.97,0,*71
1495335904.97,33729,17.63,73894.5,1.55,0.95,0.97,0,*72
1495335906.17,33730,17.63,73888.5,1.55,0.97,0.97,0,*78
1495335907.38,33731,17.63,73890.0,1.55,1.05,1.05,0,*79
1495335908.58,33732,17.63,73892.3,1.55,0.97,1.05,0,*40
1495335909.78,33733,17.63,73890.3,1.55,0.97,1.05,0,*41
1495335910.99,33734,17.63,73892.5,1.55,0.97,1.05,0,*46
1495335912.2,33735,17.63,73888.0,1.55,0.95,0.97,0,*7F
1495335913.44,33736,17.63,73894.0,1.55,0.97,1.09,0,*48
1495335914.67,33737,17.63,73898.0,1.57,1.13,1.13,0,*7D
1495335915.9,33738,17.63,73894.5,1.55,1.05,1.09,0,*7C
1495335917.11,33739,17.63,73890.3,1.55,1.05,1.05,0,*71
1495335918.37,33740,17.63,73894.0,1.55,1.09,1.09,0,*7F
1495335919.58,33741,17.63,73896.3,1.55,1.05,1.05,0,*7E
1495335920.81,33742,17.63,73894.0,1.55,1.05,1.09,0,*71
1495335922.02,33743,17.63,73890.8,1.55,1.05,1.05,0,*7C
1495335923.21,33744,17.63,73888.0,1.53,0.95,0.97,0,*7F
1495335924.41,33745,17.63,73886.8,1.55,1.05,0.97,0,*40
1495335925.61,33746,17.63,73890.0,1.55,1.05,0.97,0,*43
1495335926.81,33747,17.63,73888.5,1.59,0.97,1.01,0,*4A
1495335927.99,33748,17.63,73888.8,1.57,0.97,1.01,0,*4B
1495335929.19,33749,17.63,73892.8,1.57,1.01,1.09,0,*7C
1495335930.39,33750,17.63,73896.5,1.57,1.01,1.09,0,*74
1495335931.66,33751,17.63,73884.0,1.55,1.09,1.09,0,*7F
1495335932.86,33752,17.63,73886.0,1.57,1.09,1.01,0,*76
1495335934.1,33753,17.63,73894.3,1.57,1.13,1.13,0,*7F
1495335935.33,33754,17.63,73892.8,1.57,1.13,1.13,0,*78
1495335936.56,33755,17.63,73894.5,1.57,1.09,1.09,0,*79
1495335937.8,33756,17.63,73892.8,1.57,1.09,1.09,0,*7A
1495335939.06,33757,17.63,73896.3,1.55,1.09,1.09,0,*79
1495335940.26,33758,17.63,73894.0,1.57,1.09,0.97,0,*42
1495335941.43,33759,17.63,73890.3,1.57,1.01,1.01,0,*75
1495335942.65,33760,17.63,73888.5,1.55,0.95,0.97,0,*7F
1495335943.82,33761,17.63,73896.3,1.57,1.01,0.97,0,*40
1495335945.02,33762,17.63,73900.3,1.59,0.97,1.01,0,*4D
1495335946.2,33763,17.63,73892.5,1.57,1.01,1.01,0,*7C
1495335947.43,33764,17.63,73888.5,1.59,1.01,1.09,0,*7D
1495335948.64,33765,17.56,73884.5,1.57,1.01,1.09,0,*72
1495335949.87,33766,17.63,73886.0,1.57,1.09,1.13,0,*72
1495335951.04,33767,17.63,73888.3,1.57,1.01,1.01,0,*78
1495335952.22,33768,17.63,73886.3,1.57,1.01,1.01,0,*77
1495335953.45,33769,17.63,73890.3,1.57,1.13,1.13,0,*76
1495335954.68,33770,17.63,73892.3,1.57,1.09,1.09,0,*7E
1495335955.92,33771,17.63,73894.8,1.57,1.13,1.09,0,*74
1495335957.12,33772,17.63,73890.8,1.57,1.09,1.01,0,*74
1495335958.35,33773,17.56,73894.5,1.57,1.09,1.13,0,*76
1495335959.58,33774,17.63,73896.5,1.57,1.09,1.13,0,*71
1495335960.82,33775,17.63,73898.3,1.57,1.13,1.09,0,*70
1495335961.99,33776,17.63,73894.8,1.57,1.01,0.97,0,*46
1495335963.16,33777,17.63,73894.3,1.57,0.97,0.97,0,*79
1495335964.33,33778,17.63,73898.0,1.57,1.01,1.01,0,*76
1495335965.56,33779,17.63,73892.5,1.57,0.91,0.91,0,*77
1495335966.8,33780,17.63,73888.3,1.55,0.83,0.95,0,*74
1495335967.97,33781,17.63,73894.8,1.57,0.97,0.97,0,*70
1495335969.14,33782,17.63,73890.3,1.57,0.97,0.97,0,*73
1495335970.31,33783,17.63,73888.3,1.57,0.97,1.01,0,*4C
1495335971.54,33784,17.63,73896.5,1.57,1.09,1.13,0,*7E
1495335972.71,33785,17.63,73894.8,1.57,0.97,0.97,0,*74
1495335973.91,33786,17.63,73896.5,1.59,1.01,0.97,0,*47
1495335975.11,33787,17.63,73894.5,1.57,0.97,1.09,0,*40
1495335976.34,33788,17.63,73888.3,1.57,1.09,1.09,0,*79
1495335977.52,33789,17.63,73888.8,1.57,1.01,1.01,0,*78
1495335978.75,33790,17.63,73890.8,1.57,1.09,1.09,0,*70
1495335979.92,33791,17.63,73894.8,1.57,1.01,1.01,0,*71
1495335981.13,33792,17.63,73888.3,1.57,1.09,1.01,0,*7A
1495335982.39,33793,17.63,73884.8,1.59,1.09,1.09,0,*7D
1495335983.62,33794,17.63,73888.5,1.57,1.09,1.09,0,*74
1495335984.83,33795,17.63,73884.0,1.57,1.01,1.09,0,*7D
1495335986.0,33796,17.63,73900.0,1.57,1.01,1.01,0,*76
1495335987.18,33797,17.63,73896.3,1.57,1.01,1.01,0,*77
1495335988.35,33798,17.63,73888.3,1.57,1.01,1.01,0,*78
1495335989.53,33799,17.63,73884.0,1.57,1.01,1.01,0,*79
1495335990.76,33800,17.63,73884.5,1.59,1.01,1.09,0,*70
1495335991.93,33801,17.63,73874.5,1.57,1.01,0.97,0,*49
1495335993.16,33802,17.63,73878.0,1.57,0.87,0.91,0,*73
1495335994.35,33803,17.56,73878.3,1.57,0.91,0.97,0,*73
1495335995.55,33804,17.63,73882.8,1.57,0.91,0.97,0,*74
1495335996.74,33805,17.63,73886.8,1.59,0.97,0.97,0,*7D
1495335997.96,33806,17.63,73880.0,1.57,0.87,0.87,0,*70
1495335999.19,33807,17.63,73884.0,1.57,0.87,0.87,0,*71
1495336000.41,33808,17.63,73892.0,1.57,0.87,0.87,0,*7E
1495336001.63,33809,17.63,73890.0,1.57,0.87,0.87,0,*7F
1495336002.85,33810,17.63,73888.5,1.57,0.87,0.87,0,*77
1495336004.07,33811,17.63,73890.3,1.57,0.87,0.87,0,*76
1495336005.32,33812,17.63,73892.8,1.55,0.87,0.83,0,*73
1495336006.57,33813,17.63,73888.0,1.55,0.83,0.83,0,*76
1495336007.75,33814,17.63,73886.3,1.57,1.01,1.01,0,*73
1495336008.94,33815,17.63,73882.8,1.55,0.97,0.97,0,*70
1495336010.14,33816,17.63,73888.5,1.55,0.97,0.97,0,*73
1495336011.37,33817,17.63,73886.0,1.57,1.09,1.09,0,*70
1495336012.59,33818,17.63,73882.8,1.55,0.95,0.97,0,*7F
1495336013.81,33819,17.63,73884.5,1.57,0.87,0.87,0,*7E
1495336015.04,33820,17.63,73886.0,1.57,0.91,0.91,0,*74
1495336016.21,33821,17.63,73876.3,1.57,1.01,0.97,0,*4B
1495336017.38,33822,17.63,73872.8,1.53,0.97,0.97,0,*72
1495336018.55,33823,17.63,73882.0,1.57,0.97,0.97,0,*77
1495336019.72,33824,17.63,73886.0,1.57,0.97,0.97,0,*70
1495336020.94,33825,17.63,73884.3,1.57,0.87,0.87,0,*71
1495336022.17,33826,17.63,73886.3,1.57,0.91,0.91,0,*72
1495336023.37,33827,17.63,73890.3,1.57,1.09,1.01,0,*7B
1495336024.57,33828,17.63,73888.0,1.57,1.01,1.13,0,*7F
1495336025.74,33829,17.63,73892.5,1.57,0.97,1.01,0,*43
1495336026.95,33830,17.63,73894.5,1.57,1.01,1.13,0,*76
1495336028.18,33831,17.63,73892.5,1.57,1.13,1.21,0,*75
1495336029.39,33832,17.63,73888.8,1.55,1.05,1.05,0,*75
1495336030.59,33833,17.63,73880.8,1.55,1.05,0.97,0,*4E
1495336031.79,33834,17.63,73866.0,1.55,0.97,1.05,0,*49
1495336032.97,33835,17.63,73874.5,1.53,0.97,1.05,0,*4E
1495336034.14,33836,17.63,73864.0,1.57,0.97,1.01,0,*4D
1495336035.34,33837,17.56,73862.0,1.55,0.97,0.97,0,*70
1495336036.57,33838,17.63,73876.5,1.55,0.97,1.09,0,*49
1495336037.77,33839,17.63,73876.5,1.55,1.05,0.97,0,*44
1495336039.01,33840,17.63,73868.5,1.55,0.95,0.95,0,*70
1495336040.21,33841,17.63,73872.8,1.55,1.05,0.97,0,*4B
1495336041.41,33842,17.63,73890.3,1.55,0.97,0.97,0,*72
1495336042.61,33843,17.63,73888.5,1.55,0.97,0.97,0,*73
1495336043.86,33844,17.63,73890.0,1.55,0.87,0.87,0,*74
1495336045.11,33845,17.63,73880.5,1.55,0.83,0.87,0,*71
1495336046.28,33846,17.63,73884.8,1.57,1.01,1.01,0,*74
1495336047.45,33847,17.63,73886.8,1.57,0.97,0.97,0,*75
1495336048.68,33848,17.63,73888.3,1.57,1.09,1.13,0,*71
1495336049.85,33849,17.63,73884.5,1.57,0.97,0.97,0,*7B
1495336051.02,33850,17.63,73894.3,1.57,1.01,0.97,0,*4D
1495336052.19,33851,17.63,73898.3,1.57,0.97,0.97,0,*72
1495336053.43,33852,17.63,73882.3,1.55,0.95,0.95,0,*73
1495336054.6,33853,17.63,73874.0,1.57,1.01,1.01,0,*70
1495336055.8,33854,17.63,73888.5,1.59,0.97,1.01,0,*47
1495336057.01,33855,17.63,73888.0,1.57,1.09,1.01,0,*7E
1495336058.24,33856,17.63,73884.3,1.57,1.09,1.09,0,*75
1495336059.47,33857,17.63,73890.0,1.57,1.09,1.09,0,*74
1495336060.71,33858,17.63,73886.0,1.57,1.13,1.13,0,*7B
1495336061.92,33859,17.63,73880.5,1.57,1.13,1.01,0,*79
1495336063.11,33860,17.63,73884.0,1.59,1.01,0.97,0,*40
1495336064.32,33861,17.63,73878.5,1.57,1.09,1.01,0,*79
1495336065.58,33862,17.63,73880.5,1.59,1.09,1.13,0,*77
1495336066.81,33863,17.63,73880.5,1.57,1.09,1.13,0,*78
1495336068.07,33864,17.63,73884.3,1.59,1.13,1.09,0,*71
1495336069.31,33865,17.63,73882.8,1.57,1.13,1.09,0,*7E
1495336070.54,33866,17.63,73884.5,1.57,1.13,1.13,0,*76
1495336071.78,33867,17.63,73892.5,1.57,1.09,1.21,0,*7D
1495336072.98,33868,17.63,73898.3,1.59,1.01,1.01,0,*76
1495336074.22,33869,17.63,73902.0,1.57,1.13,1.13,0,*79
1495336075.45,33870,17.63,73900.0,1.57,1.13,1.09,0,*7A
1495336076.68,33871,17.63,73904.0,1.57,1.09,1.13,0,*7B
1495336077.92,33872,17.63,73900.8,1.57,1.09,1.09,0,*73
1495336079.12,33873,17.56,73900.3,1.57,1.01,1.09,0,*7A
1495336080.35,33874,17.63,73904.0,1.57,1.09,1.13,0,*7E
1495336081.58,33875,17.63,73900.3,1.57,1.13,1.13,0,*74
1495336082.85,33876,17.63,73896.8,1.59,1.09,1.09,0,*79
1495336084.02,33877,17.63,73900.3,1.57,0.97,1.01,0,*48
1495336085.22,33878,17.63,73890.0,1.57,1.01,1.09,0,*71
1495336086.43,33879,17.63,73894.8,1.59,1.01,1.01,0,*76
1495336087.69,33880,17.56,73884.5,1.59,1.13,1.09,0,*7B
1495336088.93,33881,17.56,73888.5,1.59,1.01,1.09,0,*79
1495336090.19,33882,17.63,73892.3,1.59,1.09,1.09,0,*72
1495336091.45,33883,17.63,73898.3,1.59,1.09,1.09,0,*73
1495336092.65,33884,17.56,73894.3,1.59,0.97,1.01,0,*4A
1495336093.92,33885,17.63,73902.0,1.59,1.09,1.09,0,*75
1495336095.15,33886,17.63,73898.8,1.59,1.01,1.09,0,*7E
1495336096.35,33887,17.63,73900.8,1.59,0.97,0.97,0,*77
1495336097.55,33888,17.63,73906.3,1.59,0.97,1.01,0,*46
1495336098.75,33889,17.63,73898.8,1.59,0.97,1.01,0,*47
1495336099.93,33890,17.56,73900.0,1.61,1.05,1.05,0,*7A
1495336101.11,33891,17.63,73900.3,1.61,1.05,1.01,0,*7F
1495336102.31,33892,17.63,73900.8,1.59,1.01,0.97,0,*4D
1495336103.5,33893,17.63,73902.8,1.59,0.97,0.97,0,*72
1495336104.73,33894,17.63,73900.3,1.57,0.91,0.91,0,*7B
1495336105.93,33895,17.56,73900.0,1.59,0.97,0.97,0,*74
1495336107.13,33896,17.56,73900.3,1.59,1.01,1.01,0,*77
1495336108.4,33897,17.63,73912.8,1.59,1.09,1.09,0,*76
1495336109.62,33898,17.56,73908.0,1.59,0.91,0.97,0,*7F
1495336110.83,33899,17.63,73898.8,1.59,1.01,1.01,0,*78
1495336112.03,33900,17.63,73898.3,1.59,1.01,1.01,0,*79
1495336113.26,33901,17.63,73900.3,1.59,1.09,1.01,0,*70
1495336114.53,33902,17.63,73902.0,1.59,1.13,1.21,0,*7A
1495336115.79,33903,17.56,73902.5,1.59,1.13,1.25,0,*7F
1495336117.06,33904,17.56,73902.5,1.59,1.13,1.13,0,*7D
1495336118.32,33905,17.56,73904.5,1.59,1.09,1.13,0,*77
1495336119.58,33906,17.56,73906.0,1.59,1.13,1.09,0,*74
1495336120.84,33907,17.56,73906.8,1.59,1.09,1.13,0,*75
1495336122.07,33908,17.56,73900.3,1.59,0.97,1.09,0,*47
1495336123.3,33909,17.63,73904.0,1.59,1.01,1.09,0,*78
1495336124.57,33910,17.63,73900.0,1.59,1.09,1.13,0,*73
1495336125.8,33911,17.56,73902.3,1.61,1.17,1.17,0,*72
1495336127.06,33912,17.56,73904.3,1.59,1.13,1.09,0,*71
1495336128.33,33913,17.63,73906.0,1.59,1.09,1.09,0,*7B
1495336129.59,33914,17.56,73898.8,1.59,1.13,1.09,0,*77
1495336130.83,33915,17.56,73906.3,1.61,1.17,1.17,0,*76
1495336132.06,33916,17.63,73900.3,1.61,1.13,1.25,0,*70